Previsão horária em Abengourou

Hoje, 24 Janeiro, Domingo

Tempo Temperatura Precipitação Vento Pressão Humidade
00:00 +25°C° 0 mm 1 m/s 740 mmHg 86%
01:00 +24°C° 0 mm 1 m/s 740 mmHg 90%
02:00 +24°C° 0 mm 1 m/s 739 mmHg 94%
03:00 +21°C° 0 mm 0 m/s 739 mmHg 98%
04:00 +21°C° 0 mm 0 m/s 739 mmHg 97%
05:00 +22°C° 0 mm 0 m/s 739 mmHg 96%
06:00 +22°C° 0 mm 0 m/s 740 mmHg 95%
07:00 +23°C° 0 mm 0 m/s 740 mmHg 90%
08:00 +26°C° 0 mm 1 m/s 741 mmHg 86%
09:00 +27°C° 0 mm 1 m/s 742 mmHg 81%
10:00 +28°C° 0 mm 1 m/s 741 mmHg 74%
11:00 +29°C° 0 mm 1 m/s 741 mmHg 68%
12:00 +30°C° 0 mm 1 m/s 741 mmHg 62%
13:00 +31°C° 0 mm 0 m/s 740 mmHg 51%
14:00 +33°C° 0 mm 0 m/s 739 mmHg 40%
15:00 +35°C° 0 mm 0 m/s 738 mmHg 29%
16:00 +33°C° 0 mm 0 m/s 738 mmHg 33%
17:00 +33°C° 0 mm 1 m/s 738 mmHg 37%
18:00 +31°C° 0 mm 1 m/s 738 mmHg 41%
19:00 +29°C° 0 mm 1 m/s 738 mmHg 48%
20:00 +28°C° 0 mm 1 m/s 739 mmHg 54%
21:00 +26°C° 0 mm 1 m/s 740 mmHg 60%
22:00 +26°C° 0 mm 1 m/s 740 mmHg 69%
23:00 +25°C° 0 mm 1 m/s 740 mmHg 77%

Amanhã, 25 Janeiro, Segunda-feira

Tempo Temperatura Precipitação Vento Pressão Humidade
00:00 +24°C° 0 mm 1 m/s 740 mmHg 86%
01:00 +24°C° 0 mm 1 m/s 739 mmHg 90%
02:00 +23°C° 0 mm 1 m/s 739 mmHg 94%
03:00 +23°C° 0 mm 1 m/s 739 mmHg 98%
04:00 +21°C° 0 mm 0 m/s 739 mmHg 99%
05:00 +21°C° 0 mm 0 m/s 739 mmHg 99%
06:00 +20°C° 0 mm 0 m/s 740 mmHg 99%
07:00 +22°C° 0 mm 0 m/s 740 mmHg 92%
08:00 +26°C° 0 mm 1 m/s 741 mmHg 86%
09:00 +27°C° 0 mm 1 m/s 742 mmHg 80%
10:00 +28°C° 0 mm 1 m/s 741 mmHg 74%
11:00 +29°C° 0 mm 1 m/s 741 mmHg 68%
12:00 +30°C° 0 mm 1 m/s 741 mmHg 63%
13:00 +29°C° 0 mm 0 m/s 740 mmHg 57%
14:00 +31°C° 0 mm 0 m/s 739 mmHg 51%
15:00 +32°C° 0 mm 0 m/s 739 mmHg 46%
16:00 +33°C° 0 mm 1 m/s 739 mmHg 48%
17:00 +31°C° 0 mm 1 m/s 739 mmHg 50%
18:00 +30°C° 0 mm 1 m/s 739 mmHg 52%
19:00 +29°C° 0 mm 1 m/s 739 mmHg 57%
20:00 +28°C° 0 mm 1 m/s 740 mmHg 63%
21:00 +26°C° 0 mm 1 m/s 740 mmHg 68%
22:00 +26°C° 0 mm 1 m/s 740 mmHg 75%
23:00 +25°C° 0 mm 1 m/s 740 mmHg 83%

Depois de amanhã, 26 Janeiro, Terça-feira

Tempo Temperatura Precipitação Vento Pressão Humidade
00:00 +24°C° 0 mm 1 m/s 740 mmHg 90%
01:00 +24°C° 0 mm 1 m/s 740 mmHg 93%
02:00 +23°C° 0 mm 1 m/s 739 mmHg 96%
03:00 +23°C° 0 mm 1 m/s 739 mmHg 99%
04:00 +21°C° 0 mm 0 m/s 739 mmHg 99%
05:00 +20°C° 0 mm 0 m/s 740 mmHg 99%
06:00 +20°C° 0 mm 0 m/s 740 mmHg 99%
07:00 +22°C° 0 mm 0 m/s 741 mmHg 90%
08:00 +26°C° 0 mm 1 m/s 741 mmHg 81%
09:00 +28°C° 0 mm 1 m/s 742 mmHg 72%
10:00 +31°C° 0 mm 1 m/s 742 mmHg 62%
11:00 +34°C° 0 mm 1 m/s 742 mmHg 52%
12:00 +36°C° 0 mm 1 m/s 741 mmHg 41%
13:00 +36°C° 0.1 mm 1 m/s 740 mmHg 41%
14:00 +36°C° 0.1 mm 1 m/s 740 mmHg 41%
15:00 +35°C° 0.1 mm 1 m/s 739 mmHg 40%
16:00 +34°C° 0 mm 1 m/s 739 mmHg 46%
17:00 +32°C° 0 mm 2 m/s 739 mmHg 52%
18:00 +31°C° 0 mm 2 m/s 739 mmHg 58%
19:00 +29°C° 0 mm 2 m/s 739 mmHg 64%
20:00 +28°C° 0 mm 2 m/s 740 mmHg 71%
21:00 +27°C° 0 mm 2 m/s 740 mmHg 78%
22:00 +26°C° 0 mm 1 m/s 741 mmHg 83%
23:00 +25°C° 0 mm 1 m/s 741 mmHg 87%

27 Janeiro, Quarta-feira

Tempo Temperatura Precipitação Vento Pressão Humidade
00:00 +24°C° 0 mm 1 m/s 741 mmHg 92%
01:00 +24°C° 0 mm 1 m/s 740 mmHg 94%
02:00 +22°C° 0 mm 0 m/s 740 mmHg 96%
03:00 +21°C° 0 mm 0 m/s 740 mmHg 99%
04:00 +21°C° 0 mm 0 m/s 740 mmHg 99%
05:00 +21°C° 0 mm 0 m/s 740 mmHg 99%
06:00 +21°C° 0 mm 0 m/s 741 mmHg 99%
07:00 +23°C° 0 mm 0 m/s 741 mmHg 89%
08:00 +27°C° 0 mm 1 m/s 741 mmHg 79%
09:00 +29°C° 0 mm 1 m/s 742 mmHg 69%
10:00 +32°C° 0 mm 1 m/s 742 mmHg 57%
11:00 +33°C° 0 mm 0 m/s 742 mmHg 45%
12:00 +37°C° 0 mm 0 m/s 741 mmHg 33%
13:00 +36°C° 0 mm 0 m/s 740 mmHg 33%
14:00 +37°C° 0 mm 1 m/s 739 mmHg 33%
15:00 +36°C° 0 mm 1 m/s 738 mmHg 33%
16:00 +35°C° 0 mm 1 m/s 738 mmHg 38%
17:00 +34°C° 0 mm 1 m/s 738 mmHg 43%
18:00 +32°C° 0 mm 1 m/s 738 mmHg 48%
19:00 +30°C° 0 mm 1 m/s 739 mmHg 57%
20:00 +29°C° 0 mm 1 m/s 739 mmHg 67%
21:00 +27°C° 0 mm 1 m/s 740 mmHg 76%
22:00 +26°C° 0 mm 1 m/s 740 mmHg 80%
23:00 +26°C° 0 mm 1 m/s 740 mmHg 84%

28 Janeiro, Quinta-feira

Tempo Temperatura Precipitação Vento Pressão Humidade
00:00 +25°C° 0 mm 1 m/s 740 mmHg 88%
01:00 +25°C° 0 mm 1 m/s 740 mmHg 90%
02:00 +24°C° 0 mm 1 m/s 740 mmHg 93%
03:00 +22°C° 0 mm 0 m/s 739 mmHg 96%
04:00 +21°C° 0 mm 0 m/s 740 mmHg 97%
05:00 +21°C° 0 mm 0 m/s 740 mmHg 97%
06:00 +21°C° 0 mm 0 m/s 740 mmHg 98%
07:00 +23°C° 0 mm 0 m/s 741 mmHg 89%
08:00 +27°C° 0 mm 1 m/s 741 mmHg 79%
09:00 +29°C° 0 mm 1 m/s 742 mmHg 70%
10:00 +30°C° 0 mm 1 m/s 741 mmHg 64%
11:00 +32°C° 0 mm 1 m/s 741 mmHg 58%
12:00 +33°C° 0 mm 1 m/s 741 mmHg 52%
13:00 +34°C° 0.1 mm 1 m/s 740 mmHg 47%
14:00 +35°C° 0.1 mm 1 m/s 739 mmHg 42%
15:00 +36°C° 0.1 mm 1 m/s 738 mmHg 36%
16:00 +35°C° 0 mm 1 m/s 738 mmHg 41%
17:00 +33°C° 0 mm 1 m/s 738 mmHg 45%
18:00 +32°C° 0 mm 1 m/s 738 mmHg 50%

29 Janeiro, Sexta-feira

Tempo Temperatura Precipitação Vento Pressão Humidade
Mostrar mais